This is the latest recevied weather packets stored in our database for station/object WR9A-13. If no packets are shown the sender has not sent any weather packets the latest 10 day(s).
| Time | Temp. | Humidity | Pressure | Rain* | Wind** | Luminosity | Snow |
|---|---|---|---|---|---|---|---|
| 1777669527 | 10.56° C | 70% | 1017.5 hPa | 0 mm | - | - | - |
| 1777669219 | 10.56° C | 69% | 1017.5 hPa | 0 mm | - | - | - |
| 1777668927 | 10° C | 71% | 1017.3 hPa | 0 mm | - | - | - |
| 1777668623 | 10° C | 73% | 1017.3 hPa | 0 mm | - | - | - |
| 1777668331 | 10° C | 72% | 1017.4 hPa | 0 mm | - | - | - |
| 1777668028 | 10° C | 72% | 1017.4 hPa | 0 mm | - | - | - |
| 1777667716 | 10.56° C | 68% | 1017.5 hPa | 0 mm | - | - | - |
| 1777667414 | 11.11° C | 61% | 1017.3 hPa | 0 mm | - | - | - |
| 1777667121 | 11.11° C | 61% | 1017.3 hPa | 0 mm | - | - | - |
| 1777666818 | 11.11° C | 61% | 1017.4 hPa | 0 mm | - | - | - |
| 1777666526 | 11.11° C | 60% | 1017.4 hPa | 0 mm | - | - | - |
| 1777666223 | 11.11° C | 58% | 1017.5 hPa | 0 mm | - | - | - |
| 1777665931 | 11.11° C | 58% | 1017.4 hPa | 0 mm | - | - | - |
| 1777665621 | 11.11° C | 57% | 1017.4 hPa | 0.25 mm | - | - | - |
| 1777665338 | 11.11° C | 57% | 1017.4 hPa | 0.25 mm | - | - | - |
| 1777665026 | 11.67° C | 56% | 1017.3 hPa | 0.25 mm | - | - | - |
| 1777664724 | 11.67° C | 55% | 1017.4 hPa | 0.25 mm | - | - | - |
| 1777664432 | 11.67° C | 56% | 1017.3 hPa | 0.25 mm | - | - | - |
| 1777664129 | 11.67° C | 55% | 1017.4 hPa | 0.25 mm | - | - | - |
| 1777663818 | 11.67° C | 53% | 1017.4 hPa | 0.25 mm | - | - | - |
| 1777663535 | 11.67° C | 55% | 1017.2 hPa | 0.25 mm | - | - | - |
| 1777663221 | 11.67° C | 53% | 1017.3 hPa | 0.25 mm | - | - | - |
| 1777662938 | 11.67° C | 52% | 1017.2 hPa | 0.25 mm | - | - | - |
| 1777662626 | 12.22° C | 53% | 1017.4 hPa | 0.25 mm | - | - | - |
| 1777662323 | 12.22° C | 54% | 1017.2 hPa | 0.25 mm | - | - | - |
* Rain latest hour (hover to see other rain measurements)
** Current wind speed in m/s (hover to see current wind gust speed)